Content
SEND FEEDBACK

Daily
Averages
Monthly
Summary
Mexico

SANCTORUM, TLAXCALA


Home > North America > Mexico > Tlaxcala
Elevation: 8990 feet     Latitude: 19 29N     Longitude: 098 28W

WEATHER
 
SELECT A DAY
Number of Records: 121,150;   Date Range: 1/1/95 - 9/15/14
 
SHARE

PRINT THIS DATA

[ ← Previous Day ]
WEATHER ALMANAC - JANUARY 23, 2013
[ Next Day → ]
[ °C ]   °F
Weather ElementAverageHighLow
Temperature57.2 °F70 °F (2:40 pm)46 °F (5:45 am)
Dewpoint41.8 °F46 °F (8:50 am)37.4 °F (1:42 pm)
Humidity56.7 %96 % (5:45 am)22 % (2:40 pm)
Barometer30.33 in30.50 in (9:41 am)29.96 in (5:40 pm)
Wind Speed5.4 mph12.7 mph (3:42 pm)
Weather ElementAverage
Visibility6.4 mi
Wind DirectionSSE (145 °)

Weather ElementTotal
Precipitation---
Heating Degree Days7 (Base 65)
Growing Degree Days8 (Base 50)
Averaged from 24 records on January 23, 2013
WEATHER CONDITIONS BREAKOUT
WIND DIRECTION BREAKOUT
WEATHER BY HOUR - JANUARY 23, 2013
[ °C ]   °F
Local TimeTemperatureDewpointHumidityBarometerVisibilityWind DirectionWind SpeedGust SpeedPrecipitationEventsConditions
5:45 AM46.0 °F45.0 °F96 %30.09 in3.0 miCalmMostly Cloudy
6:01 AM46.4 °F41.0 °F81 %30.43 in6.0 miWNW (300°)4.6 mphMostly Cloudy
6:40 AM46.4 °F41.0 °F81 %30.44 in6.0 miNNW (330°)5.8 mphMostly Cloudy
8:50 AM51.0 °F46.0 °F79 %30.20 in3.0 miCalmHaze
8:51 AM51.8 °F42.8 °F71 %30.48 in8.0 miNNW (340°)9.2 mphPartly Cloudy
9:41 AM57.2 °F42.8 °F59 %30.50 in8.0 miNorth (10°)4.6 mphClear
10:44 AM60.8 °F42.8 °F52 %30.49 in8.0 miNorth (10°)4.6 mphPartly Cloudy
11:40 AM64.4 °F42.8 °F45 %30.46 in8.0 miNE (50°)4.6 mphPartly Cloudy
11:50 AM65.0 °F44.0 °F35 %30.15 in3.0 miNorth2.2 mphHaze
12:46 PM66.2 °F39.2 °F37 %30.43 in8.0 miNE (40°)4.6 mphMostly Cloudy
1:42 PM68.0 °F37.4 °F33 %30.39 in8.0 miWSW (240°)3.5 mphMostly Cloudy
2:40 PM70.0 °F40.0 °F22 %29.99 in3.0 miSW (230°)4.5 mphHaze
2:41 PM64.4 °F37.4 °F37 %30.38 in8.0 miNorth (10°)5.8 mphOvercast
3:42 PM62.6 °F41.0 °F45 %30.38 in8.0 miNE (40°)12.7 mphOvercast
4:45 PM62.6 °F39.2 °F42 %30.38 in8.0 miNE (40°)4.6 mphOvercast
5:40 PM59.0 °F44.0 °F46 %29.96 in3.0 miENE (70°)6.7 mphHaze
5:40 PM59.0 °F42.8 °F55 %30.40 in8.0 miNE (40°)12.7 mphOvercast
6:43 PM55.4 °F42.8 °F63 %30.43 in8.0 miNE (50°)8.1 mphOvercast
7:42 PM53.6 °F41.0 °F62 %30.45 in8.0 miNNE (30°)5.8 mphOvercast
8:40 PM51.8 °F41.0 °F67 %30.47 in8.0 miNorth (360°)5.8 mphOvercast
8:50 PM55.0 °F43.0 °F54 %30.00 in3.0 miCalmOvercast
9:43 PM51.8 °F42.8 °F71 %30.48 in8.0 miNorth (360°)9.2 mphMostly Cloudy
10:40 PM50.0 °F41.0 °F71 %30.48 in8.0 miNorth (350°)10.4 mphMostly Cloudy
11:50 PM54.0 °F43.0 °F57 %30.03 in3.0 miCalmOvercast
Hourly data recorded from MMPB, located miles away from Sanctorum, Tlaxcala







STORIES FROM OUR PARTNERS